Showing default

HXMT, 42758

Orbit data source: Space-Track

HXMT, 42758 is a payload satellite owned by CNSA (CN) in LEO that was launched on Thu, 15 Jun 2017 UTC via a CHANG ZHENG 4B launch vehicle from the Jiuquan Satellite Launch Center, China (JSC). Payload-class satellites include a variety of spacecraft equipped with specific instruments for various scientific and technological missions. These include communications satellites like Starlink; space stations such as the ISS; scientific satellites like the Hubble; Earth observation satellites from companies like Planet Labs, Umbra, and HawkEye 360; GPS; miniature CubeSats for education and research; and military/defense satellites.

Loading next visibility...
Identifier
42758, 2017-034A
Orbit
LEO
Country
Flag of CNCN / PRC
Related business
Manufacturer
CAST
Mission
Operational Civil Astronomy
Bus & Motor
ZY, Unknown motor
Mass
3,000 kg wet, ~2,900 kg dry
Launch date (UTC)
2017-06-15 (9 years ago)
Launch vehicle
CHANG ZHENG 4B
Launch site
Jiuquan Satellite Launch Center, China (JSC)
Object type
Payload
Rocket body
Debris
Shape & HBR
Box + 2 Pan, 5.0 m
Radar Cross Section
10.304 m², Large (>1 m²)

Expand to show TLE details & history
Last TLE update: 6 hours ago

TLE from 6 hours ago
0 HXMT
1 42758U 17034A   26120.96401985  .00005272  00000-0  26246-3 0  9993
2 42758  43.0137  85.9011 0032192 207.8415 152.0711 15.18038749490482
Epoch: 2026-04-30T23:08Z
TLE epoch observation values (Epoch: 2026-04-30T23:08:11.315Z)
Latitude
0.00001°
Longitude
-120.04912°
Altitude
531.156 km
Speed
7.588 km/s
True Right ascension
05h 43m 36s
True Declination
0° 00' 00"
Sunlit
Object was in daylight at epoch
Visualization orbit readout
Latitude
Unknown
Longitude
Unknown
Altitude
Unknown
Speed
Unknown
Apparent Right ascension
Unknown
Apparent Declination
Unknown
Sunlit
N/A
Visualization observer readout
Local Sidereal Time
13:12:47
Azimuth
Unknown
Elevation
Unknown
Doppler factor
Unknown
Orbital elements
Apogee altitude
535.89 km
Perigee altitude
491.517 km
Semi-major axis
6,891.84 km
Eccentricity
0.00322
Inclination
43.0137°
RAAN
85.9011°
Arg. of periapsis
207.8415°
True anomaly
152.24327°
Mean anomaly
152.0711°
Eccentric anomaly
152.15725°
Mean motion
3.7935 °/min
Orbital period
94.9 mins
BSTAR
0.00026246
Loading maneuver chart data...
Computing Atmospheric mass density...
Loading historical data...
Loading historical data...
Loading historical data...
Loading historical data...
Loading historical data...
Loading historical data...
Loading historical data...

Documentation

Showing up to 5 results
|